Theta_e
334 334 334 335 336 335 337 339 340 341 340 339 339 340 344 345 346 346 346 345 346 347 347 349 350 350 349 350 350 349 352 347 352 349 350 351 350 351 349 349 349 351 351 349 351 352 353 356 356 356 358 358 356 355 356 359 360 363 361 360 358 359 356
333 335 336 336 335 335 334 339 340 341 341 340 340 339 344 345 346 346 345 345 345 348 348 348 351 350 350 350 351 350 351 349 353 354 351 353 355 352 352 351 351 351 351 352 351 352 354 354 356 355 356 358 357 355 355 358 359 360 361 360 358 356 358
332 334 336 336 337 336 333 337 340 341 341 341 341 340 343 345 346 346 346 345 345 347 348 348 351 350 351 350 350 350 351 350 352 352 350 351 352 351 352 352 351 351 351 352 352 352 353 353 354 354 354 356 357 356 356 359 360 361 361 359 360 360 356
330 332 334 336 337 337 335 335 338 340 341 342 342 340 343 345 346 347 347 346 345 347 348 348 350 351 351 351 351 351 350 351 351 351 351 351 351 351 350 350 350 350 350 350 352 353 353 352 351 352 360 354 356 356 358 360 362 361 359 358 357 357 356
330 333 334 335 335 336 336 334 336 339 340 342 342 342 343 346 347 347 347 347 346 346 349 349 351 352 352 352 352 352 352 351 351 350 350 349 351 351 350 349 349 349 349 350 351 353 352 351 351 351 355 355 355 355 357 359 360 361 358 357 357 357 357
329 331 333 335 336 337 337 339 339 339 339 340 340 340 343 346 347 346 347 348 347 347 350 350 350 351 351 352 352 352 352 351 351 351 350 349 349 349 349 349 350 350 349 348 349 350 351 351 350 349 355 355 355 355 356 357 359 360 359 357 356 356 357
329 330 331 334 336 337 338 337 340 341 341 340 341 344 343 344 346 346 348 348 348 346 348 349 350 350 351 352 351 352 350 351 351 350 350 349 348 348 347 348 350 349 349 350 349 348 348 349 349 349 351 354 355 355 355 356 357 358 358 357 356 355 355
330 330 333 334 336 338 338 338 340 341 341 341 340 341 341 342 341 340 339 342 344 345 349 350 350 350 350 351 351 350 351 350 351 351 350 349 348 348 348 348 348 348 349 347 348 349 348 347 349 350 349 350 352 354 354 355 356 357 357 357 356 355 357
330 331 332 334 337 338 338 338 340 340 341 340 340 341 341 342 342 342 342 342 341 342 342 344 348 351 351 350 350 349 350 351 350 351 350 349 348 347 348 348 348 349 348 348 348 349 349 349 348 350 350 350 349 350 350 351 354 356 355 355 356 355 356
328 331 333 334 337 339 339 338 340 342 341 339 340 341 340 341 342 342 342 343 344 344 344 343 344 346 350 350 350 350 349 349 350 350 350 348 348 347 347 348 349 350 349 349 349 348 350 350 350 350 347 347 348 349 349 350 354 353 352 351 352 351 347
328 330 332 333 334 336 338 340 338 338 339 340 339 340 340 341 341 341 342 344 345 346 347 346 345 342 343 349 349 349 349 349 349 349 349 349 349 347 346 347 348 349 349 349 349 349 349 350 351 349 347 347 348 350 351 351 351 351 351 351 352 351 348
328 330 332 333 333 334 335 337 340 340 339 339 342 341 341 341 341 342 343 344 345 344 344 343 342 343 346 346 348 348 348 348 349 349 349 349 349 348 347 346 346 347 349 350 348 349 348 349 350 350 349 348 349 352 352 351 351 350 350 351 352 351 348
330 330 332 334 335 334 335 336 338 340 339 340 341 341 341 341 342 342 342 343 344 344 344 344 345 344 340 340 342 343 344 344 346 347 347 350 350 348 349 346 347 347 346 348 349 348 347 349 349 352 352 351 352 353 352 351 352 350 349 350 351 351 349
329 328 329 331 332 333 333 334 336 337 339 341 340 341 341 342 342 341 341 341 342 343 344 345 345 344 342 342 341 341 344 347 348 349 351 351 350 346 349 350 350 351 351 349 350 350 350 351 352 353 353 354 353 353 352 351 351 350 349 350 351 351 349
324 327 327 328 330 332 333 333 333 334 336 339 341 340 341 341 343 343 343 342 342 344 344 346 344 344 344 344 344 344 344 347 348 348 352 354 350 346 346 348 349 351 350 351 352 352 351 352 352 351 351 352 353 352 353 351 351 351 350 350 351 351 351
323 325 326 327 329 331 332 332 332 333 336 337 340 340 340 339 342 343 342 341 342 343 346 346 344 342 342 343 344 346 347 346 347 346 348 349 350 347 345 346 349 352 354 351 350 352 352 350 350 350 350 350 350 351 352 352 353 356 358 357 354 352 352
321 322 325 327 329 330 330 331 332 333 334 337 339 340 339 340 341 342 343 342 342 343 347 345 343 343 343 342 342 346 345 344 345 347 347 347 348 349 352 351 355 353 352 351 350 350 351 350 348 348 349 348 349 348 351 353 355 357 347 350 357 363 357
321 322 324 326 329 331 330 331 332 332 333 336 337 338 340 340 339 340 340 342 342 343 346 348 346 345 344 344 345 347 347 345 344 345 347 347 347 347 351 355 355 352 350 350 350 351 352 350 349 349 350 349 347 347 350 350 347 337 340 343 344 355 358
320 322 324 327 330 331 332 332 332 333 335 337 337 337 341 341 341 341 341 341 343 345 343 342 341 342 343 344 345 345 346 344 343 342 340 342 346 349 351 354 353 352 351 349 350 350 348 349 350 348 348 349 347 348 346 337 336 333 336 336 338 342 355
321 323 324 328 331 332 332 333 334 335 335 338 340 339 343 344 342 342 343 344 345 343 342 341 339 340 343 344 345 345 345 344 343 340 339 339 341 345 348 351 351 351 349 350 351 347 346 347 348 346 346 348 349 344 335 332 333 328 331 332 333 336 346
322 323 326 329 330 331 332 333 333 334 333 335 337 338 339 340 343 344 345 345 344 343 343 342 342 342 342 342 343 345 347 346 344 342 341 340 342 345 346 345 344 347 348 348 348 347 348 349 349 346 347 348 343 335 330 327 323 322 325 325 328 332 346
323 324 324 328 329 330 331 332 332 333 333 335 335 335 336 336 338 338 338 339 338 340 342 343 342 341 342 342 342 343 345 348 347 346 347 347 345 346 344 342 341 343 346 348 347 347 348 348 349 349 348 346 336 329 322 319 318 318 319 321 322 329 342
326 327 328 330 332 331 331 332 332 333 334 334 334 334 334 335 336 336 336 336 337 338 337 338 338 339 340 340 342 343 344 343 343 343 343 344 345 344 344 343 341 341 343 342 344 347 347 348 348 348 348 340 330 323 319 318 318 316 316 317 319 330 341
327 329 331 331 330 329 328 329 331 331 331 331 332 334 335 335 335 334 334 334 335 335 335 335 335 337 337 337 339 340 341 342 342 341 341 340 341 341 341 342 341 340 343 341 341 345 347 347 344 345 345 333 324 321 319 318 318 314 314 315 319 335 345
328 330 330 330 330 328 328 328 328 328 328 329 329 331 332 333 334 333 331 332 333 334 333 334 335 336 336 337 338 339 339 340 339 338 338 337 337 337 336 337 336 337 339 341 342 343 344 346 343 336 330 328 328 331 320 319 320 313 312 314 318 333 338
327 329 330 330 328 329 329 329 326 325 325 325 326 328 330 332 332 332 331 331 333 332 332 333 335 336 336 336 336 336 337 337 338 337 336 335 334 334 333 333 332 331 331 331 334 333 332 332 330 327 326 326 323 322 320 318 318 316 310 312 315 323 332
331 329 328 329 328 329 324 325 325 324 324 325 326 326 328 329 329 329 331 330 331 330 332 334 335 335 335 336 335 335 335 335 334 333 334 334 333 332 331 331 329 328 327 326 326 325 324 324 323 322 321 322 322 322 322 321 318 319 310 310 312 316 326
331 327 327 329 330 324 321 322 323 324 325 326 326 327 327 327 327 327 328 328 328 329 332 332 332 333 333 333 333 333 334 334 334 334 332 332 331 329 329 329 328 327 326 325 324 322 321 321 320 318 318 318 319 320 320 323 322 319 315 311 311 312 318
327 324 322 322 320 322 321 320 322 323 324 325 326 326 326 326 325 325 326 326 327 329 330 330 330 330 330 330 329 329 329 330 331 332 332 331 330 328 326 327 326 326 326 324 322 321 320 319 319 318 317 316 317 318 319 320 322 320 321 316 310 310 313
326 325 324 322 323 323 325 323 322 321 321 322 322 322 323 323 323 324 324 324 327 328 329 328 328 328 326 324 321 321 321 322 322 322 322 323 323 325 325 325 325 325 324 324 323 320 319 319 319 317 315 314 314 316 317 319 320 321 321 321 315 312 311
328 327 325 322 324 326 324 323 323 323 323 322 322 322 321 322 322 323 322 323 327 326 326 326 326 324 322 320 318 317 316 316 316 317 317 317 316 316 318 318 320 321 323 324 322 321 319 319 318 315 314 313 312 313 315 317 319 319 322 322 321 316 314
325 326 329 325 324 325 325 325 325 325 325 326 327 326 326 322 322 321 321 324 326 324 324 324 322 320 317 315 314 312 313 312 312 312 313 315 315 314 313 314 317 316 315 320 324 323 322 322 321 318 315 313 313 314 315 316 315 315 316 320 322 322 319
321 323 325 323 325 326 324 324 324 324 325 324 326 328 329 326 322 322 323 324 325 325 324 321 319 317 314 313 312 312 311 310 310 310 311 311 312 313 314 313 312 313 315 314 315 321 325 325 325 323 321 318 317 317 316 314 312 312 313 313 314 314 317
320 321 323 324 324 323 323 323 322 323 323 323 324 325 325 325 326 326 323 324 325 325 324 323 319 314 313 312 313 313 314 315 319 313 310 311 310 309 310 312 312 310 310 310 310 312 312 314 314 314 315 316 317 314 314 313 313 311 309 311 310 311 312
323 323 324 325 325 324 322 322 322 322 323 322 323 323 322 322 324 326 326 327 327 324 324 324 324 320 317 316 314 314 316 314 313 313 312 310 310 308 307 307 310 311 310 310 308 309 311 312 312 313 311 311 312 314 315 315 313 314 308 307 303 304 306
324 325 325 326 326 325 325 325 323 323 323 322 323 323 322 322 322 324 325 325 325 325 325 324 320 317 317 317 317 316 316 314 313 314 314 312 311 311 311 307 301 302 310 311 310 305 300 305 312 313 312 310 310 312 313 313 313 306 297 295 295 297 297
324 324 324 326 325 324 324 324 325 324 323 322 323 323 323 322 322 322 324 324 324 324 323 322 322 319 318 319 317 319 319 316 313 312 312 312 312 313 313 310 309 298 298 305 306 301 295 294 298 305 312 317 311 309 306 305 299 295 295 296 297 297 298
323 324 325 325 326 326 325 324 323 322 321 320 321 320 321 321 322 323 324 323 323 323 323 323 322 320 320 320 322 324 322 317 318 317 315 314 312 312 312 310 309 309 300 296 300 299 295 293 293 294 297 301 308 318 312 305 299 295 297 297 298 299 298
Wind_Speed
6 6 6 7 7 5 10 13 13 11 12 11 12 13 14 13 13 12 13 13 13 11 10 10 10 8 8 7 6 5 4 6 5 6 6 6 7 7 6 6 6 6 5 6 6 6 6 5 5 5 5 5 5 5 4 4 3 4 3 3 2 3 3
6 6 7 7 7 5 9 12 13 12 12 12 11 12 13 15 14 13 13 14 14 14 13 12 11 9 9 8 6 5 6 6 6 6 6 6 6 6 7 7 6 6 5 6 5 5 5 6 6 5 6 6 6 5 5 4 4 3 3 3 3 3 3
6 6 7 7 7 6 6 10 12 14 13 13 12 11 14 14 15 15 14 13 14 13 12 12 12 11 9 8 7 7 7 6 6 7 8 7 7 7 6 6 6 5 6 5 6 6 5 6 6 6 6 6 6 5 5 4 4 4 4 4 3 4 4
5 6 8 9 8 5 7 9 9 11 12 14 13 12 15 16 16 15 14 15 15 13 13 12 12 12 10 9 9 8 7 7 7 7 7 6 7 6 6 6 5 5 5 6 6 6 6 5 6 6 8 7 6 6 4 5 5 4 5 4 4 4 4
6 5 6 8 10 11 8 8 12 12 14 13 12 12 14 16 17 14 13 14 15 16 15 14 12 11 10 10 9 8 9 8 7 6 6 5 5 5 7 7 7 7 7 7 7 7 6 5 5 6 7 7 7 6 6 5 6 5 5 4 4 4 5
5 5 4 3 4 6 11 13 3 8 12 12 11 9 11 16 15 16 15 15 14 14 13 12 12 11 11 11 9 9 8 7 6 5 6 5 5 6 6 7 8 7 7 8 7 7 8 7 6 5 6 7 8 8 7 7 7 6 6 5 5 5 5
5 3 2 2 3 2 5 5 11 11 9 11 8 8 9 8 4 2 6 12 14 15 13 13 13 11 11 10 10 9 10 9 8 8 6 6 6 7 6 6 6 7 7 5 7 7 7 7 8 7 7 7 7 8 8 8 7 6 6 6 6 6 6
6 6 4 3 4 1 6 4 3 10 13 1 8 9 10 10 12 12 8 9 11 6 6 13 12 10 11 9 10 10 10 10 9 8 7 8 8 8 7 7 6 6 5 6 6 5 7 6 6 5 7 6 6 7 8 7 8 7 6 7 7 7 6
8 6 5 6 5 4 6 9 7 6 10 9 5 9 11 11 12 10 9 11 12 9 5 11 6 7 9 9 10 10 10 10 9 9 9 10 9 9 9 8 8 6 7 7 6 6 6 6 6 3 2 4 3 6 6 7 7 6 6 7 6 5 1
8 9 8 7 4 3 2 6 9 7 2 7 2 4 8 11 11 11 10 9 5 5 10 13 4 9 6 8 10 10 9 10 9 10 10 10 9 9 9 9 8 8 8 8 8 7 7 7 5 8 7 8 10 7 7 4 2 2 2 3 3 3 4
6 7 7 6 6 3 2 1 4 8 8 2 1 1 3 7 10 11 11 11 9 8 7 8 9 12 7 7 9 9 10 9 10 10 11 11 9 9 8 8 8 8 9 9 9 9 8 7 6 8 9 9 10 8 5 6 6 5 4 2 2 3 4
7 6 7 6 5 2 2 2 2 2 6 5 3 4 6 5 7 9 10 10 9 9 9 8 7 3 5 6 5 10 11 8 8 11 11 11 10 10 8 7 7 8 8 9 10 9 9 8 8 8 9 9 10 8 7 5 5 5 5 5 5 4 4
6 6 8 9 7 4 2 3 2 2 0 3 5 3 1 4 6 7 9 10 9 9 8 9 9 8 10 11 7 4 5 5 3 0 7 10 10 6 2 3 4 7 9 8 9 10 8 2 1 4 2 7 8 8 7 7 5 4 3 3 4 4 4
6 7 8 8 9 9 5 3 3 2 2 4 4 6 8 6 6 9 10 10 9 10 9 8 8 8 8 9 9 5 3 4 3 1 0 3 4 6 7 3 1 2 2 5 4 5 3 7 8 7 6 6 7 6 6 6 6 6 5 4 6 6 5
6 7 8 10 9 9 8 7 6 4 2 2 5 5 5 4 5 6 5 6 8 8 10 10 8 8 8 9 8 8 7 4 2 2 1 2 6 5 6 6 5 2 2 3 5 5 4 5 7 7 5 5 5 5 5 6 6 6 8 9 7 6 6
5 6 7 9 9 8 9 8 7 6 4 2 3 6 8 8 7 9 9 8 7 9 9 11 10 11 9 7 6 7 8 5 3 3 3 3 5 6 7 6 4 2 2 2 4 5 4 6 5 4 8 8 6 5 5 5 4 7 11 10 7 6 6
3 4 5 6 7 7 8 8 7 7 6 4 1 4 8 10 7 6 9 9 8 7 8 10 11 10 9 9 9 6 3 7 10 6 4 3 3 2 3 5 4 6 4 5 6 6 6 6 10 11 8 7 7 6 5 4 5 9 10 10 9 5 5
3 3 4 6 7 7 7 8 8 9 9 9 8 8 12 11 10 8 3 5 7 5 2 5 9 10 9 7 7 6 6 5 4 3 5 5 5 4 3 3 4 5 5 5 6 7 7 7 7 7 6 6 5 5 4 3 2 2 4 5 5 4 4
2 3 5 5 7 8 6 6 7 7 9 7 6 11 7 15 15 12 10 8 10 9 7 5 5 8 9 8 7 5 6 6 5 3 2 2 3 4 3 5 5 5 5 6 5 3 4 5 5 6 6 6 6 5 3 2 2 1 1 3 4 5 4
2 3 3 4 5 8 8 7 6 7 8 7 6 7 7 5 5 9 9 10 8 7 6 7 5 0 3 6 5 5 4 4 5 4 3 1 1 1 1 3 4 4 3 3 3 3 3 3 4 4 5 5 6 6 3 2 3 4 3 4 5 6 5
1 3 3 5 5 6 7 7 7 7 8 8 7 8 9 9 5 4 7 8 9 7 7 5 2 4 4 5 4 3 3 4 4 3 3 3 2 1 1 2 2 2 2 3 4 5 5 5 5 4 3 2 4 4 3 2 5 5 5 5 6 6 4
2 3 3 3 4 6 6 7 7 7 5 6 6 6 7 8 8 8 8 8 8 6 6 8 6 5 4 5 5 3 3 4 4 4 3 3 2 2 2 2 2 2 1 1 2 2 2 3 2 4 3 4 5 5 4 2 6 6 5 4 4 5 4
3 2 1 3 4 5 5 5 7 6 5 6 6 6 6 7 9 9 8 8 8 11 8 5 5 5 6 7 6 5 4 5 6 5 5 5 5 4 2 2 1 1 1 2 2 3 3 3 2 2 4 5 5 6 4 2 5 7 6 5 4 3 4
5 3 2 3 5 6 5 5 5 6 7 7 8 6 4 6 9 9 9 7 5 8 8 7 6 6 7 7 6 4 4 5 7 7 6 6 5 4 4 4 4 4 4 2 2 3 4 3 1 0 1 6 6 4 5 3 6 8 7 6 7 4 2
5 3 2 3 3 5 6 5 6 6 7 8 8 6 5 6 9 8 9 8 7 8 9 8 7 6 7 7 6 6 6 7 7 7 7 7 7 6 7 6 6 4 3 2 3 3 2 2 3 3 6 6 6 9 7 4 5 10 11 9 8 4 2
4 5 3 4 3 3 4 4 6 8 8 8 6 5 6 6 9 9 10 10 10 10 9 8 8 7 8 8 8 8 8 8 8 8 8 8 7 7 7 5 5 6 6 6 5 6 7 7 6 6 7 7 7 6 6 6 6 8 11 11 11 8 4
4 1 0 1 4 6 7 6 6 6 6 5 5 6 6 6 10 10 9 9 11 12 9 8 8 8 8 8 8 9 9 8 9 9 8 7 7 7 7 6 6 6 7 7 7 8 9 10 9 8 8 8 7 6 6 5 5 7 11 12 13 12 7
2 0 1 2 4 4 5 5 5 6 6 5 6 6 6 7 10 9 9 10 12 10 8 8 9 9 9 9 9 9 9 8 8 8 8 7 7 8 8 7 6 6 7 7 8 10 10 9 8 7 6 7 7 7 6 8 10 5 9 12 13 13 11
2 1 3 4 5 4 5 4 5 6 6 5 5 6 5 8 10 8 8 11 10 8 9 9 8 8 9 9 9 8 8 7 8 7 6 7 7 8 8 6 7 7 7 8 9 9 9 8 7 5 5 6 6 6 6 6 6 11 7 12 14 13 12
2 2 2 4 4 4 4 5 6 7 7 6 5 6 6 7 8 7 9 8 5 6 6 7 6 7 9 9 9 9 8 8 8 8 7 7 7 8 8 7 7 7 6 7 7 8 8 6 5 5 6 7 6 6 6 5 4 6 10 9 13 12 12
4 1 2 4 6 4 4 4 5 6 7 6 6 5 6 6 8 8 7 4 5 6 7 8 8 8 9 8 8 8 7 8 8 8 8 8 7 8 7 6 5 6 5 6 7 7 7 6 6 7 6 5 6 5 4 4 5 4 7 10 9 10 11
4 1 4 4 6 5 4 4 4 5 6 5 5 5 4 5 6 8 5 5 6 6 7 8 8 8 8 7 7 7 7 8 8 8 8 8 7 7 5 5 5 6 5 5 5 5 6 5 5 5 5 5 5 4 4 4 4 4 5 5 6 6 9
8 7 5 5 6 6 4 3 3 4 5 5 3 4 4 5 5 6 6 5 6 6 6 8 8 8 7 7 7 6 7 8 7 7 7 6 6 6 6 6 6 6 6 5 5 5 5 5 5 4 5 5 5 4 4 5 5 5 5 5 4 4 4
9 8 6 6 6 7 8 7 7 7 8 8 6 6 6 5 4 3 5 6 7 5 5 6 7 7 7 7 6 6 6 7 10 9 7 7 7 7 7 7 6 7 6 5 5 5 5 5 5 4 3 4 4 4 5 5 4 4 4 4 4 4 3
8 10 8 7 4 4 8 7 8 8 8 7 5 7 7 7 6 5 5 4 4 5 6 7 7 6 6 6 6 7 6 6 6 6 7 6 7 6 6 5 6 5 4 3 2 2 4 6 4 3 3 4 3 4 5 4 3 2 2 3 3 3 2
7 7 8 7 5 5 7 7 7 7 7 6 6 7 8 7 7 5 5 5 5 6 6 6 6 5 5 5 6 6 6 5 5 5 5 6 6 6 6 8 7 5 4 4 7 7 6 3 3 3 4 5 1 1 3 5 1 3 3 5 5 4 2
8 8 8 8 8 6 7 7 7 7 6 5 5 6 6 7 6 6 5 5 4 5 6 6 6 5 5 5 5 5 5 5 5 4 5 5 5 6 6 6 6 8 8 7 6 6 7 8 6 3 3 4 4 1 2 2 2 3 4 5 5 5 8
4 7 9 8 8 6 8 8 8 7 6 5 6 6 5 6 5 4 4 4 4 5 5 5 6 6 5 4 4 5 4 4 4 4 5 4 4 5 6 6 6 6 6 5 6 6 5 5 6 6 7 7 5 2 2 1 3 6 6 7 9 10 11
Wind_Direction
246 231 223 232 217 188 183 190 187 186 184 177 177 171 167 169 170 172 174 176 177 175 181 177 180 181 185 190 192 186 187 177 185 184 179 180 180 177 182 188 188 194 193 193 204 206 216 220 217 216 215 219 216 218 217 206 201 219 223 216 223 224 239
259 246 236 227 225 202 191 190 189 187 188 184 180 173 167 171 171 175 177 177 178 177 180 181 179 185 186 190 194 187 193 185 187 182 176 178 179 179 182 183 185 195 199 205 205 209 210 221 215 217 218 220 218 213 215 212 206 212 220 228 224 244 258
328 296 262 240 231 211 199 196 194 188 188 189 183 172 171 172 173 175 176 178 178 178 179 183 183 184 188 188 187 196 195 188 192 180 180 180 183 184 187 181 188 191 204 208 209 210 202 213 211 214 214 212 217 211 213 215 211 206 214 215 221 229 240
317 323 331 312 279 239 195 186 201 194 188 193 188 178 171 172 174 175 175 178 178 175 179 187 183 184 186 188 193 189 196 198 199 190 181 177 184 187 186 196 197 195 204 216 218 216 220 204 202 206 213 211 210 206 206 211 208 207 212 212 227 233 233
323 335 350 358 350 328 279 217 194 200 187 195 197 183 171 173 173 172 177 180 178 178 181 182 185 185 186 190 195 194 193 195 202 200 191 183 180 182 191 200 203 206 206 212 218 217 222 225 217 198 207 202 203 198 203 209 209 208 210 205 221 231 236
321 333 341 353 358 320 319 314 180 227 202 189 192 185 172 175 172 174 178 178 183 182 177 177 183 184 188 190 195 198 193 194 194 198 196 194 187 189 193 198 204 211 211 211 208 213 214 217 223 200 202 199 199 199 202 206 212 208 213 211 217 222 225
309 296 283 290 279 57 333 296 321 333 284 198 174 114 89 62 36 169 175 180 181 178 177 180 182 184 191 188 195 194 197 196 192 195 195 199 200 203 208 201 200 207 212 212 217 207 208 211 216 209 197 198 200 202 201 204 212 209 209 212 220 226 222
309 308 308 281 270 199 101 133 291 280 301 221 133 144 131 126 116 110 88 27 3 335 206 181 181 186 188 193 195 196 196 199 197 197 197 201 203 210 213 216 214 213 213 213 218 205 215 210 200 205 199 197 205 209 203 206 209 212 207 212 219 223 219
313 304 293 290 280 273 122 124 145 270 305 291 152 148 139 129 131 143 155 154 152 146 43 348 309 197 186 193 197 200 196 197 198 198 201 203 208 211 213 215 218 215 217 223 227 220 216 225 214 177 15 330 258 207 207 205 214 222 217 216 214 219 267
326 325 318 310 284 282 293 139 145 152 285 306 340 108 140 140 139 144 144 150 135 153 166 159 156 310 266 201 203 202 200 198 199 199 201 206 210 213 212 211 213 215 218 220 222 224 222 220 203 108 156 200 249 254 228 188 146 154 153 169 157 147 169
325 316 314 315 318 312 329 332 174 159 167 160 351 136 162 157 149 141 142 144 145 148 147 154 165 173 229 238 206 209 205 204 200 203 203 208 210 212 211 211 208 209 217 219 220 221 222 215 172 172 178 200 219 235 216 189 178 172 177 135 116 175 199
328 333 332 313 317 345 8 2 325 217 154 144 176 170 167 174 158 143 141 142 142 145 149 155 165 165 72 21 267 209 209 209 213 206 207 211 213 214 215 214 218 216 217 218 218 219 213 209 197 181 189 201 208 206 202 188 184 180 167 161 164 182 204
336 348 352 344 340 349 12 38 31 349 331 137 127 115 233 175 151 144 143 144 147 147 146 147 142 131 103 88 25 323 125 108 91 316 226 214 212 209 223 248 241 229 226 224 222 219 217 195 43 348 262 211 198 195 192 187 180 152 167 180 178 178 194
346 359 358 352 356 351 360 27 21 13 123 133 161 178 179 182 167 159 157 151 149 152 154 152 134 114 111 126 145 223 260 136 135 117 138 162 126 143 178 203 307 349 95 98 73 53 76 127 147 170 191 216 211 193 183 178 170 165 160 199 206 194 196
349 360 355 356 351 353 359 16 12 12 1 126 142 169 183 165 157 157 156 155 148 145 149 143 122 108 129 147 158 173 198 204 190 172 125 100 131 158 188 209 214 199 252 119 120 129 158 151 143 160 175 205 217 189 179 174 183 181 178 195 203 195 199
4 354 353 356 354 350 349 349 355 358 6 75 156 180 176 176 178 166 164 167 154 138 136 134 135 140 154 162 168 173 192 165 161 181 174 131 131 168 180 194 203 186 188 152 145 146 187 152 124 211 200 196 201 195 182 190 194 201 195 192 196 194 202
4 341 350 348 351 354 344 342 345 348 356 346 282 233 203 182 171 171 156 160 146 136 139 134 145 153 160 177 179 168 186 165 207 183 162 144 129 139 196 189 165 156 179 171 169 176 201 194 175 197 200 195 192 194 193 195 205 208 201 200 213 209 202
356 338 356 349 345 346 341 339 347 346 336 336 322 292 204 172 144 127 137 109 77 68 67 137 149 155 167 173 146 168 164 179 212 178 161 154 152 161 190 178 154 161 171 173 175 184 191 190 193 194 190 189 191 190 185 165 76 145 184 194 210 206 184
310 9 344 349 352 349 348 340 338 331 334 323 329 334 164 161 150 146 143 136 124 137 131 123 142 151 155 148 144 150 141 154 170 172 165 179 171 156 166 175 167 171 176 190 195 171 187 201 185 186 180 175 175 173 140 113 53 347 212 202 197 208 191
297 41 357 10 8 16 14 4 352 351 340 342 7 0 22 75 113 132 139 132 128 138 151 146 185 148 113 117 121 135 161 162 147 144 155 175 237 285 210 173 171 179 188 168 153 168 195 219 211 196 186 177 166 147 126 106 24 342 289 250 225 211 197
3 53 32 37 36 35 26 3 356 359 357 337 9 27 29 37 39 90 109 124 130 144 152 141 130 150 156 130 135 134 157 155 145 144 154 167 180 174 135 127 100 81 89 147 165 173 194 199 195 201 185 136 113 121 106 54 10 335 320 307 290 271 235
5 55 42 41 46 34 33 14 359 359 357 6 22 28 42 61 40 57 69 86 99 91 84 111 122 127 129 106 89 75 71 103 110 106 96 83 97 102 86 82 116 143 133 133 183 203 198 213 182 187 160 127 126 119 99 26 3 349 332 316 305 278 249
326 42 45 26 40 44 31 20 12 357 19 41 29 40 53 66 75 65 58 58 83 100 96 77 84 80 76 74 69 67 67 86 96 88 79 78 79 74 78 104 130 225 221 209 218 203 199 203 196 190 165 130 122 120 92 46 360 347 337 318 301 247 215
308 312 65 58 57 53 52 32 18 30 40 42 46 42 52 67 73 79 80 69 70 89 92 92 71 68 71 70 64 65 75 87 96 97 93 84 73 55 39 28 24 20 351 315 254 222 201 188 143 342 128 124 126 128 104 70 15 4 352 358 340 303 243
309 315 30 60 70 67 51 51 46 45 45 47 53 39 55 79 93 87 86 81 74 82 84 80 76 66 69 68 62 58 59 64 67 67 68 64 56 47 41 33 30 8 343 290 246 243 243 210 166 87 70 94 100 92 81 62 28 17 2 7 24 16 2
321 319 346 75 76 65 64 51 61 57 54 54 42 46 62 71 78 78 81 82 78 64 64 71 68 67 68 68 64 59 56 55 60 60 61 60 58 54 49 39 39 30 40 33 41 61 57 61 68 81 68 54 58 57 61 61 36 21 18 17 21 31 62
289 275 273 88 85 82 75 66 65 64 65 58 50 47 52 72 79 74 70 71 73 76 65 66 72 70 72 70 71 71 68 65 68 70 66 67 72 65 56 48 51 53 56 58 58 64 62 60 58 54 60 54 48 54 52 58 49 28 30 34 32 24 44
314 247 121 102 102 91 90 90 85 80 69 55 52 51 51 65 74 76 79 78 77 79 85 79 81 82 77 76 73 70 68 70 71 72 71 66 70 69 63 54 55 58 67 73 76 73 68 65 62 53 54 63 58 48 34 38 41 26 23 34 41 34 31
295 217 141 112 101 101 106 102 95 86 78 60 55 47 51 68 75 77 82 83 84 89 88 86 81 79 78 71 64 60 58 51 54 58 63 70 75 81 78 68 66 64 65 75 75 75 77 75 80 82 69 70 55 45 40 34 37 28 17 29 32 27 25
293 286 115 115 105 105 94 85 86 88 83 77 67 55 45 56 73 72 75 72 59 63 63 62 62 72 75 75 72 67 62 60 59 59 56 56 59 64 69 65 67 66 63 67 76 82 82 76 81 78 65 64 59 44 31 33 29 40 33 29 29 29 26
258 245 78 112 115 113 105 101 99 94 89 80 72 70 74 68 74 77 72 51 57 62 67 67 66 67 68 69 70 69 68 62 56 55 52 49 52 58 57 58 54 67 54 67 71 77 86 85 81 80 83 75 69 59 46 19 28 22 29 32 35 19 30
149 78 29 94 98 92 92 95 98 101 100 91 86 75 69 79 87 85 79 71 66 67 73 76 77 74 72 71 70 71 75 73 65 56 50 53 55 62 54 59 55 65 47 51 66 68 73 75 76 79 80 84 79 70 49 39 22 26 27 22 19 23 19
106 109 106 109 108 110 103 96 74 69 68 65 54 81 84 78 84 103 104 89 75 75 81 86 87 85 79 77 73 69 68 75 75 68 57 51 58 58 57 55 60 60 53 49 47 45 53 55 61 63 66 70 73 67 51 31 24 16 11 12 9 9 2
109 100 81 66 57 91 95 87 87 79 76 74 71 74 80 91 100 111 114 114 112 108 100 97 96 93 91 87 86 81 77 78 77 76 69 53 48 47 46 45 48 60 54 50 43 61 61 58 54 53 57 68 67 59 50 41 36 30 6 1 354 340 344
95 101 97 78 49 71 96 100 90 87 84 80 72 70 69 71 83 97 105 112 116 118 112 109 104 105 102 98 90 86 85 81 78 78 79 74 62 54 42 30 16 46 65 37 19 355 71 95 81 75 64 71 55 77 77 56 50 18 318 311 313 308 333
60 72 77 77 69 71 86 84 93 87 83 77 75 72 69 68 70 79 95 99 101 106 112 115 109 102 100 102 103 104 98 94 90 93 91 87 87 85 72 60 65 30 48 61 31 33 1 348 117 129 118 102 64 346 94 109 147 314 320 292 300 315 298
96 80 68 73 62 41 62 71 76 79 70 61 63 69 71 70 61 58 51 60 67 87 101 105 100 94 96 100 104 112 111 106 102 101 94 95 95 90 89 76 49 44 43 41 44 24 21 39 49 63 74 110 120 56 58 66 26 331 323 359 19 60 74
74 103 98 80 75 49 52 53 58 63 64 55 54 50 48 50 47 62 76 78 83 87 90 94 101 107 112 112 113 112 113 121 122 116 105 95 95 102 104 97 84 46 21 34 33 18 29 47 57 53 53 41 42 95 114 95 22 5 19 39 58 74 79